Volver al catálogo

DELTA 1 DEB *

ActivoPO
NORAD 8679·DEBRIS·🇺🇸 United States

Lanzado Jan 22, 1975 desde Vandenberg Space Force Base

Loading…

Próximos Pases (próximas 24 horas)

TLE

ActualizadoSource: Space-Track

Época: Sep 14, 2026, 09:42 UTC

1 08679U 75004G   26257.40483990  .00008452  00000-0  62033-3 0  9991
2 08679  98.7196 163.2601 0101554 141.8525 218.9941 14.99673519655782

Sigue DELTA 1 DEB * en tiempo real con AllMySat

Download on the App Store